Probability
97 100 100 100 100 100 100 100 100 100 100 100 100 100 100 100 100 100 100 100 100 100 100 100 100 100 100 100 100 100 100 100 100 100 100 100 100 100 100 100 97 94 100
90 100 100 100 100 100 100 100 100 100 100 100 100 100 100 100 100 100 100 100 100 100 100 100 100 100 100 100 100 100 100 100 100 100 100 100 100 100 100 100 90 94 100
97 100 100 100 100 100 100 100 100 100 100 100 100 100 100 100 100 100 100 100 100 100 100 100 100 100 100 100 100 100 100 100 100 100 100 84 100 100 100 100 100 100 100
97 100 100 100 100 100 100 100 100 100 100 100 100 100 100 100 100 100 100 100 100 100 100 100 100 100 100 100 100 100 97 97 97 90 48 55 87 100 100 100 100 97 97
100 100 100 100 100 100 100 100 100 100 100 100 100 100 100 100 100 100 100 100 100 100 100 100 100 100 100 97 100 100 100 97 94 81 42 29 71 97 100 94 94 94 90
100 100 100 100 100 100 100 100 100 100 100 100 100 100 100 100 100 100 100 100 100 100 100 100 100 100 100 97 97 94 94 94 87 55 39 32 58 97 94 90 84 87 84
100 100 100 100 100 100 100 100 100 100 100 100 100 100 100 100 100 100 100 100 100 100 100 97 97 97 97 94 90 90 97 97 61 19 26 19 45 97 94 94 94 90 87
100 100 100 100 100 100 100 100 100 100 100 100 100 100 100 100 100 100 100 100 100 97 97 97 97 97 94 94 87 81 94 90 48 16 32 19 65 97 94 90 90 94 87
100 100 100 100 100 100 100 100 100 100 100 100 100 100 100 100 100 100 100 100 97 97 94 94 90 94 94 84 74 61 71 77 6 6 23 13 81 97 97 94 94 90 90
100 100 100 100 100 100 100 100 100 100 100 100 100 100 100 100 100 100 100 100 97 97 94 94 94 94 90 77 65 68 74 35 0 3 16 19 90 97 97 97 94 90 87
97 100 100 100 100 100 100 100 100 100 100 100 100 100 100 100 100 100 97 97 97 94 94 94 90 94 90 90 87 74 61 3 0 0 6 61 90 97 87 90 90 94 87
94 97 97 97 100 100 100 97 97 97 97 97 100 100 100 97 90 90 94 97 97 97 90 94 94 90 84 32 32 68 16 0 0 0 3 94 100 94 90 90 87 87 81
84 90 90 90 90 90 90 94 94 94 97 94 97 97 90 77 81 74 77 84 84 81 84 84 94 74 39 6 6 6 3 0 0 0 10 94 87 87 81 94 87 84 81
81 71 65 71 74 77 84 87 84 87 87 84 87 90 77 61 61 42 58 68 65 52 45 48 42 29 13 6 0 0 0 0 0 0 19 84 84 87 81 81 74 68 65
71 65 58 55 58 58 58 74 77 77 81 74 77 84 65 48 45 32 39 39 39 26 23 16 10 13 6 0 0 0 0 0 3 6 26 71 74 74 65 58 55 61 52
58 55 45 45 45 42 52 61 55 58 68 58 65 65 55 29 26 26 29 23 23 16 13 6 6 0 0 0 0 0 0 0 0 0 3 19 61 61 61 52 42 35 39
61 45 35 35 35 39 52 48 48 42 42 52 48 55 35 23 23 23 26 26 6 6 6 6 3 0 0 0 0 0 0 0 0 0 3 10 13 26 26 19 16 16 16
48 32 39 29 29 35 48 45 26 29 29 29 26 35 35 23 13 13 16 13 6 3 3 3 0 0 0 0 0 0 0 0 0 0 0 0 0 0 10 13 10 10 13
35 29 26 26 16 29 32 32 13 19 19 19 23 26 32 23 16 13 10 3 3 3 3 3 0 0 0 0 0 0 0 0 0 0 0 0 0 0 0 6 3 3 3
26 26 26 19 19 26 35 23 13 16 23 19 19 16 26 29 26 13 6 13 3 3 0 0 0 0 0 0 0 0 0 0 0 0 0 0 0 0 0 0 3 3 3
19 19 19 16 19 16 19 16 16 16 16 10 3 6 13 23 26 16 10 6 3 3 0 0 0 0 0 0 0 0 0 0 0 0 0 0 0 0 0 0 0 0 0
13 16 16 19 16 19 19 13 13 10 6 0 3 6 3 3 6 19 10 6 3 0 0 0 0 0 0 0 0 0 0 0 0 0 0 0 0 0 0 0 0 0 0
3 10 13 19 19 19 19 10 6 3 3 3 0 6 6 3 6 6 6 3 0 0 0 0 0 0 0 0 0 0 0 0 0 0 0 0 0 0 0 0 0 0 0
6 6 10 10 13 16 16 10 6 3 3 3 0 0 0 0 3 0 6 3 0 0 0 0 0 0 0 0 0 0 0 0 0 0 0 0 0 0 0 0 0 0 0
6 6 6 10 6 10 13 10 3 3 3 0 0 0 0 3 3 3 3 3 0 0 0 0 0 0 0 0 0 0 0 0 0 0 0 0 0 0 0 0 0 0 0
10 6 3 6 3 3 3 0 3 3 0 0 0 3 3 3 3 3 3 3 3 3 0 0 0 0 0 0 0 0 0 0 0 0 0 0 0 0 0 0 0 0 0
Height
5897 5897 5897 5897 5898 5899 5900 5901 5902 5902 5903 5904 5904 5904 5905 5905 5905 5905 5904 5904 5903 5902 5901 5901 5900 5899 5898 5898 5897 5897 5896 5896 5895 5894 5893 5893 5892 5891 5891 5890 5889 5889 5888
5895 5895 5896 5896 5897 5898 5899 5900 5901 5901 5902 5903 5903 5904 5904 5904 5904 5904 5903 5903 5902 5902 5901 5900 5899 5899 5898 5897 5897 5896 5896 5895 5895 5894 5893 5893 5892 5891 5890 5890 5889 5889 5888
5893 5894 5894 5895 5896 5897 5898 5899 5899 5900 5901 5902 5902 5903 5903 5903 5903 5903 5902 5902 5901 5901 5900 5899 5898 5898 5897 5897 5896 5896 5895 5895 5894 5894 5893 5892 5892 5891 5890 5890 5889 5889 5888
5891 5892 5892 5893 5894 5895 5896 5897 5898 5899 5899 5900 5901 5902 5902 5902 5902 5902 5902 5901 5901 5900 5899 5898 5897 5897 5897 5896 5895 5895 5894 5894 5893 5893 5892 5892 5892 5891 5890 5890 5889 5889 5888
5889 5889 5890 5891 5892 5893 5894 5895 5896 5896 5897 5898 5899 5900 5900 5901 5901 5900 5900 5900 5899 5899 5898 5897 5896 5896 5896 5895 5895 5894 5894 5893 5893 5893 5892 5892 5891 5891 5890 5890 5889 5889 5888
5886 5886 5887 5888 5889 5890 5891 5892 5893 5894 5895 5896 5897 5898 5898 5898 5899 5899 5899 5898 5898 5897 5897 5896 5895 5895 5895 5894 5894 5893 5893 5893 5893 5892 5892 5892 5891 5891 5890 5890 5889 5888 5888
5883 5884 5885 5885 5886 5887 5888 5889 5891 5892 5892 5894 5895 5895 5896 5896 5897 5897 5897 5896 5896 5896 5895 5895 5894 5894 5893 5893 5893 5893 5893 5892 5892 5892 5892 5892 5891 5891 5890 5890 5889 5888 5888
5880 5881 5881 5882 5883 5884 5885 5886 5887 5888 5889 5890 5892 5892 5893 5893 5894 5894 5894 5894 5894 5894 5894 5893 5893 5892 5892 5892 5892 5892 5892 5891 5892 5892 5891 5891 5891 5890 5890 5889 5889 5888 5887
5878 5878 5879 5879 5880 5881 5881 5883 5884 5885 5886 5887 5888 5889 5889 5890 5890 5891 5892 5892 5892 5892 5891 5891 5891 5891 5891 5891 5891 5891 5891 5891 5890 5891 5891 5890 5890 5889 5889 5888 5888 5887 5887
5874 5874 5875 5875 5876 5877 5878 5879 5880 5881 5882 5883 5884 5885 5885 5886 5886 5887 5888 5889 5889 5889 5889 5889 5889 5889 5889 5889 5889 5889 5889 5889 5889 5889 5889 5889 5889 5889 5888 5888 5887 5886 5886
5870 5870 5871 5872 5872 5873 5874 5875 5876 5877 5878 5879 5880 5881 5881 5882 5883 5884 5885 5885 5886 5886 5886 5886 5886 5886 5887 5887 5887 5887 5888 5888 5888 5888 5888 5888 5888 5887 5887 5886 5886 5885 5884
5866 5866 5867 5867 5868 5869 5869 5870 5871 5872 5873 5874 5875 5876 5877 5878 5879 5880 5881 5882 5882 5883 5883 5883 5884 5884 5884 5884 5885 5885 5886 5886 5886 5886 5886 5886 5886 5886 5885 5885 5884 5883 5883
5861 5861 5862 5863 5863 5863 5865 5866 5866 5867 5868 5869 5870 5871 5872 5873 5874 5876 5876 5877 5878 5879 5879 5880 5880 5881 5881 5882 5882 5883 5884 5884 5884 5884 5884 5884 5884 5884 5883 5883 5882 5881 5881
5857 5857 5857 5857 5858 5858 5860 5861 5861 5862 5863 5864 5865 5866 5867 5868 5869 5871 5872 5873 5874 5874 5875 5876 5876 5877 5878 5879 5879 5880 5881 5881 5881 5881 5881 5881 5881 5881 5881 5880 5879 5879 5878
5851 5852 5851 5852 5853 5853 5854 5855 5856 5857 5858 5859 5860 5860 5861 5863 5864 5866 5867 5868 5869 5870 5870 5871 5872 5873 5874 5875 5876 5877 5877 5878 5878 5878 5878 5878 5878 5878 5878 5877 5877 5876 5875
5844 5845 5845 5846 5846 5847 5849 5850 5851 5852 5853 5853 5854 5855 5856 5857 5859 5860 5862 5863 5864 5865 5866 5867 5867 5869 5870 5871 5872 5873 5873 5874 5874 5874 5874 5875 5874 5874 5874 5874 5873 5872 5872
5838 5839 5840 5840 5840 5841 5843 5844 5845 5846 5847 5848 5848 5849 5851 5852 5853 5855 5856 5857 5858 5859 5860 5862 5863 5864 5865 5866 5867 5868 5869 5870 5870 5870 5870 5871 5870 5870 5870 5869 5869 5868 5868
5830 5832 5833 5834 5834 5836 5837 5837 5838 5839 5841 5841 5842 5843 5845 5846 5848 5848 5850 5852 5852 5853 5855 5856 5858 5860 5861 5861 5863 5864 5865 5865 5866 5866 5866 5866 5866 5865 5865 5865 5864 5864 5863
5823 5824 5825 5826 5827 5829 5829 5830 5831 5832 5834 5835 5836 5836 5838 5839 5841 5842 5844 5846 5847 5848 5850 5851 5853 5854 5856 5857 5858 5859 5860 5860 5861 5861 5862 5862 5861 5861 5860 5860 5859 5859 5858
5816 5817 5818 5820 5821 5822 5823 5824 5824 5825 5826 5827 5829 5831 5832 5833 5835 5836 5838 5839 5841 5843 5845 5846 5848 5849 5850 5852 5853 5854 5855 5855 5856 5856 5856 5856 5856 5856 5855 5854 5854 5853 5852
5809 5810 5812 5813 5813 5814 5815 5816 5816 5817 5819 5820 5821 5823 5824 5825 5828 5830 5832 5834 5836 5838 5840 5841 5842 5844 5845 5846 5847 5848 5849 5850 5851 5851 5851 5851 5851 5850 5849 5849 5848 5847 5846
5802 5802 5804 5805 5806 5807 5808 5809 5810 5811 5813 5814 5814 5815 5817 5820 5822 5824 5825 5827 5830 5832 5834 5836 5837 5838 5839 5841 5842 5843 5844 5845 5844 5845 5845 5845 5845 5844 5844 5843 5842 5841 5839
5796 5796 5796 5797 5798 5798 5799 5801 5802 5804 5806 5808 5809 5810 5813 5815 5816 5818 5820 5822 5824 5826 5828 5830 5832 5833 5834 5835 5836 5838 5838 5839 5839 5839 5839 5839 5839 5838 5837 5836 5835 5833 5832
5788 5789 5789 5790 5791 5792 5793 5794 5796 5799 5801 5802 5803 5805 5807 5809 5810 5812 5814 5816 5818 5820 5822 5824 5826 5827 5828 5829 5830 5831 5832 5833 5833 5833 5832 5832 5832 5832 5831 5829 5828 5826 5824
5781 5781 5782 5782 5784 5785 5786 5788 5789 5792 5794 5796 5797 5799 5802 5804 5805 5807 5809 5811 5812 5814 5816 5817 5819 5820 5822 5823 5823 5824 5825 5826 5826 5826 5825 5825 5825 5824 5823 5822 5820 5819 5817
5773 5774 5774 5774 5776 5778 5779 5781 5783 5785 5787 5790 5792 5794 5796 5798 5800 5802 5803 5805 5807 5808 5810 5811 5812 5814 5815 5816 5817 5817 5818 5818 5819 5819 5818 5818 5817 5817 5816 5814 5812 5811 5809
Wind_Speed
8 7 5 6 7 8 9 10 11 11 11 10 10 9 9 9 9 10 9 9 8 8 7 7 6 5 4 4 3 2 2 1 1 1 2 1 1 2 2 2 2 2 1
10 8 8 7 8 9 10 11 12 12 12 12 11 10 10 10 10 10 10 10 9 9 8 7 6 5 5 4 3 3 2 1 1 1 1 2 2 2 3 3 3 2 2
11 10 10 9 10 11 11 12 13 14 14 14 13 12 11 11 11 11 11 11 10 10 9 8 7 6 5 4 3 2 1 1 1 1 2 2 2 3 3 3 3 3 2
12 12 12 12 12 12 13 14 14 15 15 15 14 13 13 12 12 12 12 12 11 10 10 9 8 7 5 4 3 2 1 1 1 1 2 2 2 3 3 3 3 3 2
13 13 13 13 13 13 14 15 16 16 16 16 16 15 14 14 13 13 13 13 12 11 10 10 9 8 6 5 4 3 2 1 1 1 2 2 2 2 3 3 3 3 2
14 14 14 14 14 15 15 16 17 17 17 17 17 17 16 16 15 14 14 13 13 12 11 10 10 9 7 6 5 3 2 1 1 1 1 1 2 2 2 2 2 2 2
15 15 15 15 15 15 16 17 18 19 19 19 18 18 17 17 17 16 15 15 14 13 12 11 11 10 8 7 6 4 4 3 2 2 1 1 2 2 2 2 2 2 2
15 15 16 15 15 16 16 17 19 19 20 20 20 19 19 18 18 17 17 16 15 14 13 12 12 11 10 8 7 6 5 4 3 3 3 2 2 3 3 2 2 2 2
15 16 17 16 16 16 16 17 18 19 20 21 21 21 20 20 20 19 18 17 16 15 14 13 13 12 11 9 8 7 6 5 5 4 4 4 4 4 3 3 4 3 3
16 17 17 18 17 17 18 18 18 19 21 22 22 22 22 21 21 20 19 18 17 16 15 14 13 13 12 11 10 9 8 7 6 6 6 6 5 5 5 5 5 5 5
17 17 18 19 19 19 20 20 20 19 20 21 22 23 22 22 21 20 19 19 18 17 16 15 14 14 13 12 11 10 9 8 8 8 8 7 7 7 7 7 7 7 7
19 20 20 20 21 22 21 21 21 21 21 22 23 23 23 22 22 21 20 19 18 18 17 16 15 15 14 14 13 11 10 10 10 10 9 9 9 9 9 9 9 9 9
21 22 23 23 23 23 22 22 22 22 23 23 24 24 24 24 23 22 21 21 20 19 18 17 17 16 16 15 14 12 12 11 12 11 11 11 11 10 10 11 11 11 11
22 23 25 25 25 24 24 23 23 24 24 24 25 25 25 25 24 24 23 22 21 20 20 19 19 18 17 16 15 14 13 13 13 14 13 13 13 13 13 13 13 13 14
24 24 26 26 26 26 25 25 24 24 25 25 25 24 25 26 25 24 23 23 22 22 21 20 20 20 18 17 17 16 15 15 15 16 16 15 15 15 15 15 15 15 15
25 24 25 26 26 26 26 25 25 25 26 26 27 26 26 27 26 26 25 24 24 23 23 22 21 20 19 19 18 17 17 16 16 17 17 17 17 17 17 17 18 18 18
29 28 26 27 27 27 26 26 26 26 27 26 26 27 27 27 27 27 27 26 24 24 24 23 21 21 21 21 19 18 18 18 18 18 18 19 19 20 20 20 20 20 20
31 30 29 28 28 28 27 27 28 28 29 27 27 27 27 27 27 28 28 27 25 24 24 24 23 22 21 20 20 20 20 20 20 20 20 20 21 21 22 22 21 21 22
32 31 30 29 28 28 29 29 27 29 28 28 27 27 27 26 27 27 27 27 27 26 24 24 24 22 22 21 21 21 21 21 21 21 21 21 22 22 23 23 23 23 24
32 31 31 30 28 28 30 32 31 28 27 26 26 26 27 27 27 27 27 26 26 25 25 23 23 22 23 23 23 23 22 23 22 23 23 22 23 23 24 24 24 25 26
31 31 30 31 31 31 31 32 32 29 28 28 27 27 27 25 26 25 25 26 24 23 23 23 22 23 24 23 23 24 23 23 24 23 24 24 24 24 25 26 27 27 28
31 31 31 32 32 32 32 32 32 30 29 28 29 27 26 25 23 23 24 23 23 22 21 22 22 22 23 24 24 24 24 24 25 25 26 26 25 26 26 27 28 29 30
31 31 32 32 33 31 30 30 31 32 31 30 28 27 25 25 24 22 20 21 21 21 21 22 23 23 24 25 26 26 26 26 26 26 27 28 28 29 29 29 31 32 33
31 31 31 31 32 31 30 30 30 30 31 30 27 27 26 23 21 21 21 22 21 22 22 23 23 24 24 25 26 27 27 27 27 28 29 29 29 30 31 32 32 33 34
31 30 30 31 31 31 30 30 31 30 29 30 29 28 27 25 22 21 22 22 22 22 23 23 23 24 25 26 27 28 29 29 29 29 29 30 31 31 31 32 32 33 34
29 29 30 29 29 30 31 30 30 31 29 28 28 29 28 26 24 22 21 20 21 21 21 22 23 25 26 27 28 28 29 29 30 29 30 31 30 31 31 32 33 33 34
Wind_Direction
279 274 254 237 230 230 235 240 242 244 247 249 254 261 269 278 286 291 294 297 299 300 300 299 298 298 295 295 297 306 321 0 22 25 26 20 23 22 23 23 18 12 14
279 268 256 243 241 241 241 243 245 247 249 251 254 259 266 274 283 291 293 297 298 297 298 298 297 293 292 296 301 307 326 6 25 28 34 41 35 24 25 21 14 3 350
274 265 256 246 246 249 247 245 247 248 249 250 254 259 264 271 280 287 292 295 296 293 294 295 293 289 289 291 297 302 316 344 14 33 45 41 29 24 22 20 11 0 345
268 264 256 251 251 252 251 249 248 248 250 250 254 259 264 269 275 282 288 290 291 290 290 291 288 284 282 283 287 289 293 318 4 27 34 33 26 21 16 14 9 1 348
268 267 259 256 256 255 254 253 251 249 250 253 255 259 262 266 270 275 281 284 285 285 285 286 281 277 275 275 278 274 269 289 329 2 17 17 12 14 10 7 7 1 349
270 265 259 258 259 258 256 255 252 249 250 253 255 257 260 263 265 269 274 277 279 279 279 279 277 272 271 271 272 268 261 262 289 314 342 349 348 2 357 353 356 355 348
269 265 261 259 260 262 258 253 251 251 251 253 255 256 258 260 263 266 269 272 273 273 273 273 272 269 266 266 267 264 257 255 260 267 294 305 328 337 338 340 343 340 333
265 263 260 259 259 259 259 256 252 252 252 251 252 254 257 259 261 263 265 268 269 268 268 269 269 267 263 261 262 260 255 249 248 252 270 286 304 308 311 320 325 323 322
267 266 262 261 257 256 257 256 255 254 253 252 252 252 254 257 259 261 262 265 266 265 265 265 266 265 261 259 259 257 254 248 247 252 270 282 289 295 301 307 309 310 313
266 264 260 258 255 254 255 254 255 255 254 253 253 252 252 254 257 258 259 263 263 261 261 261 262 262 259 256 255 255 252 249 252 255 265 274 276 284 292 297 300 300 302
261 259 259 257 253 252 251 251 252 254 254 253 253 252 253 255 255 256 257 259 260 260 259 257 258 258 257 254 252 253 253 252 253 258 265 273 276 282 286 290 295 296 296
255 252 253 255 253 251 250 250 251 251 252 252 251 251 253 255 255 255 256 258 257 258 257 256 256 256 255 253 252 252 253 253 256 258 264 269 272 277 279 284 288 291 293
253 252 251 250 251 250 248 249 248 248 248 249 249 251 252 253 254 255 256 257 257 257 256 254 254 254 254 254 253 252 253 254 257 261 266 267 269 272 277 283 286 288 290
256 253 250 249 250 249 246 246 247 249 249 249 248 252 253 252 252 253 255 256 256 256 255 253 252 252 253 253 252 252 253 254 259 262 263 268 272 275 278 282 286 285 286
261 256 251 252 248 248 246 247 248 250 250 249 248 252 252 250 250 253 254 256 256 254 252 252 252 250 250 250 251 252 253 255 258 262 264 269 273 275 277 281 283 285 285
266 259 255 250 245 244 244 245 245 246 248 249 250 251 251 249 250 252 253 255 254 251 251 252 251 248 247 249 251 253 254 256 259 260 262 268 273 276 277 279 281 283 283
266 261 256 253 249 246 244 243 243 246 248 248 249 250 251 249 248 249 250 252 252 250 249 250 250 248 247 246 249 253 254 256 259 262 264 266 271 274 276 279 281 281 281
265 261 258 255 252 248 246 244 246 248 246 246 248 250 249 247 248 249 247 248 250 250 248 248 246 246 246 246 248 253 255 256 261 263 265 268 272 274 275 278 279 281 281
267 266 261 258 254 250 247 248 249 249 245 243 246 248 246 247 248 248 245 245 247 249 247 246 244 245 245 248 251 254 256 258 263 266 269 271 273 274 276 277 278 280 280
268 267 265 263 258 252 250 249 247 248 242 241 245 246 246 243 244 246 244 244 246 244 243 244 243 244 246 249 252 256 258 260 263 265 268 271 273 275 277 277 278 280 282
268 266 266 265 263 257 256 250 246 247 246 246 246 246 244 241 241 243 244 246 243 244 242 243 242 242 245 248 252 255 258 260 262 265 267 270 272 275 277 279 279 281 283
268 267 267 263 260 257 254 251 249 248 249 248 248 250 247 243 242 241 240 241 242 243 242 242 245 247 248 251 254 256 260 262 265 265 267 269 271 276 279 281 280 281 284
268 268 267 264 260 258 252 250 250 250 252 252 250 248 244 243 242 240 239 238 242 244 244 247 249 250 253 254 256 258 260 264 266 266 266 268 271 275 278 281 282 282 284
268 268 266 265 263 261 256 251 250 252 254 254 254 251 246 247 243 237 239 241 244 246 247 249 250 251 255 256 256 257 260 264 267 268 268 270 272 275 278 282 284 285 286
268 268 265 265 263 262 259 253 249 253 255 253 253 254 248 247 247 245 244 245 245 244 247 249 251 253 256 258 256 258 261 263 267 269 270 272 275 277 279 281 284 285 286
266 265 266 263 263 261 258 253 250 252 255 255 253 252 250 250 249 250 252 248 245 245 247 248 251 254 256 257 257 258 260 262 266 268 270 273 275 277 280 282 285 286 287